Palm Springs, CA

6:04 AM PDT on May 30, 2017 (GMT -0700)
Palm Springs International

Weather History for KPSP - May, 2013

Change the Weather History Date:

Monday, May 27, 2013

  Actual Average Record
Temperature  
Mean Temperature 83 °F 82 °F  
Max Temperature 97 °F 97 °F 112 °F (1968)
Min Temperature 68 °F 67 °F 48 °F (1953)
Degree Days  
Heating Degree Days 0 0  
Month to date heating degree days 0 0  
Since 1 July heating degree days 760 872  
Cooling Degree Days 18 17  
Month to date cooling degree days 436 369  
Year to date cooling degree days 966 689  
Growing Degree Days 32 (Base 50)    
Moisture  
Dew Point 46 °F    
Average Humidity 32    
Maximum Humidity 47    
Minimum Humidity 16    
Precipitation  
Precipitation 0.00 in 0.00 in 0.11 in (1981)
Month to date precipitation T 0.12  
Year to date precipitation 0.97 2.87  
Since 1 July precipitation 2.19  
Snow  
Snow 0.00 in - - ()
Month to date snowfall 0.0  
Year to date snowfall 0.0  
Snow Depth 0.00 in    
Sea Level Pressure  
Sea Level Pressure 29.75 in    
Wind  
Wind Speed 7 mph (NW)    
Max Wind Speed 21 mph    
Max Gust Speed 29 mph    
Visibility 10 miles    
Events      
T = Trace of Precipitation, MM = Missing Value Source: NWS Daily Summary

Daily Weather History Graph

Daily Weather History Graph

Search for Another Location

Airport or City:

Trip Planner

Search our weather history database for the weather conditions in past years. The results will help you decide how hot, cold, wet, or windy it might be!

Date:

Astronomy

May. 27, 2013 Rise Set
Actual Time 5:37 AM PDT 7:48 PM PDT
Civil Twilight 5:09 AM PDT 8:17 PM PDT
Nautical Twilight 4:34 AM PDT 8:52 PM PDT
Astronomical Twilight 3:57 AM PDT 9:29 PM PDT
Moon 10:35 PM PDT (5/27) 8:18 AM PDT (5/27)
Length of Visible Light 15h 07m
Length of Day
14h 10m
Waning Gibbous, 90% of the Moon is Illuminated
May 27
Waning Gibbous
May 31
Last Quarter
Jun 8
New
Jun 16
First Quarter
Jun 23
Full

Hourly Weather History & Observations

Time (PDT) Temp. Dew Point Humidity Pressure Visibility Wind Dir Wind Speed Gust Speed Precip Events Conditions
12:53 AM 75.0 °F 46.0 °F 36% 29.80 in 10.0 mi SSW 3.5 mph - N/A   Clear
1:53 AM 72.0 °F 48.9 °F 44% 29.79 in 10.0 mi ESE 5.8 mph - N/A   Clear
2:53 AM 71.1 °F 46.9 °F 42% 29.79 in 10.0 mi Calm Calm - N/A   Clear
3:53 AM 71.1 °F 46.9 °F 42% 29.79 in 10.0 mi SE 3.5 mph - N/A   Clear
4:53 AM 70.0 °F 48.0 °F 46% 29.81 in 10.0 mi Variable 3.5 mph - N/A   Clear
5:53 AM 69.1 °F 48.0 °F 47% 29.82 in 10.0 mi Calm Calm - N/A   Clear
6:53 AM 72.0 °F 48.0 °F 43% 29.82 in 10.0 mi WNW 9.2 mph - N/A   Clear
7:53 AM 75.0 °F 46.9 °F 37% 29.81 in 10.0 mi NW 11.5 mph 17.3 mph N/A   Scattered Clouds
8:53 AM 79.0 °F 46.0 °F 31% 29.82 in 10.0 mi NW 11.5 mph - N/A   Scattered Clouds
9:53 AM 82.0 °F 44.1 °F 26% 29.81 in 10.0 mi NW 8.1 mph - N/A   Clear
10:53 AM 84.9 °F 43.0 °F 23% 29.80 in 10.0 mi NW 10.4 mph - N/A   Clear
11:53 AM 87.1 °F 41.0 °F 20% 29.80 in 10.0 mi Calm Calm - N/A   Clear
12:53 PM 90.0 °F 41.0 °F 18% 29.78 in 10.0 mi Variable 4.6 mph - N/A   Clear
1:53 PM 91.9 °F 43.0 °F 18% 29.75 in 10.0 mi Variable 5.8 mph - N/A   Clear
2:53 PM 95.0 °F 44.1 °F 17% 29.72 in 10.0 mi NNW 12.7 mph - N/A   Clear
3:53 PM 96.1 °F 43.0 °F 16% 29.69 in 10.0 mi NNW 16.1 mph 21.9 mph N/A   Scattered Clouds
4:53 PM 93.9 °F 44.1 °F 18% 29.67 in 10.0 mi NW 18.4 mph 28.8 mph N/A   Clear
5:53 PM 91.9 °F 46.9 °F 21% 29.66 in 10.0 mi NW 15.0 mph 24.2 mph N/A   Clear
6:53 PM 89.1 °F 46.9 °F 23% 29.66 in 10.0 mi NW 24.2 mph 28.8 mph N/A   Clear
7:53 PM 84.9 °F 50.0 °F 30% 29.66 in 10.0 mi NW 19.6 mph 28.8 mph N/A   Clear
8:53 PM 82.0 °F 50.0 °F 33% 29.66 in 10.0 mi NW 18.4 mph 31.1 mph N/A   Scattered Clouds
9:53 PM 80.1 °F 51.1 °F 36% 29.68 in 10.0 mi NW 16.1 mph 24.2 mph N/A   Scattered Clouds
10:53 PM 79.0 °F 51.1 °F 38% 29.68 in 10.0 mi WNW 8.1 mph 17.3 mph N/A   Clear
11:53 PM 78.1 °F 51.1 °F 39% 29.67 in 10.0 mi WNW 9.2 mph - N/A   Clear